DW2659 Weather Reports


Display with metric or nautical units.
time (UTC)temp
F
wind
direction
speed
MPH
gust
MPH
rain 1hr
in
rain 24hr
in
rain mn
in
humidity
%
barometer
mb
20260509170403 73 231 2.0 7.0 0.00 0.00 0.00 56 1011.5
20260509165904 73 100 3.0 6.0 0.00 0.00 0.00 59 1011.8
20260509164904 73 127 2.0 5.0 0.00 0.00 0.00 60 1011.8
20260509164403 72 148 3.0 6.0 0.00 0.00 0.00 59 1012.0
20260509163905 72 178 4.0 8.0 0.00 0.00 0.00 60 1012.0
20260509162903 71 180 2.0 3.0 0.00 0.00 0.00 64 1011.9
20260509162404 70 248 2.0 3.0 0.00 0.00 0.00 63 1011.9
20260509161905 69 104 3.0 5.0 0.00 0.00 0.00 64 1011.8
20260509161404 69 188 2.0 7.0 0.00 0.00 0.00 65 1011.9
20260509160904 69 166 5.0 7.0 0.00 0.00 0.00 66 1011.9
20260509160405 68 212 3.0 9.0 0.00 0.00 0.00 67 1012.2
20260509155904 68 253 2.0 7.0 0.00 0.00 0.00 66 1012.2
20260509155404 67 115 3.0 6.0 0.00 0.00 0.00 69 1012.2
20260509154905 67 201 2.0 3.0 0.00 0.00 0.00 68 1012.2
20260509154404 67 315 1.0 3.0 0.00 0.00 0.00 67 1012.5
20260509153904 67 229 2.0 5.0 0.00 0.00 0.00 69 1012.5
20260509153404 66 235 1.0 5.0 0.00 0.00 0.00 69 1012.5
20260509152905 66 246 3.0 6.0 0.00 0.00 0.00 68 1012.5
20260509152404 66 223 3.0 8.0 0.00 0.00 0.00 69 1012.5
20260509151903 66 200 3.0 6.0 0.00 0.00 0.00 70 1012.5
20260509151404 65 145 3.0 6.0 0.00 0.00 0.00 71 1012.5
20260509150905 65 179 4.0 6.0 0.00 0.00 0.00 71 1012.5
20260509145405 65 213 2.0 6.0 0.00 0.00 0.00 71 1012.4
20260509144404 65 242 2.0 3.0 0.00 0.00 0.00 74 1012.3
20260509143905 65 247 3.0 6.0 0.00 0.00 0.00 74 1012.3
20260509143404 64 177 3.0 6.0 0.00 0.00 0.00 75 1012.1
20260509142904 64 178 2.0 5.0 0.00 0.00 0.00 76 1012.1
20260509141404 63 173 2.0 5.0 0.00 0.00 0.00 76 1011.3
20260509140906 63 217 3.0 5.0 0.00 0.00 0.00 76 1011.3
20260509140404 63 244 1.0 3.0 0.00 0.00 0.00 76 1011.3
20260509135905 62 173 1.0 2.0 0.00 0.00 0.00 77 1011.3
20260509134904 62 102 2.0 5.0 0.00 0.00 0.00 78 1011.3
20260509133905 61 148 2.0 3.0 0.00 0.00 0.00 79 1011.6
20260509133404 60 143 1.0 3.0 0.00 0.00 0.00 80 1011.5
20260509132904 60 206 0.0 2.0 0.00 0.00 0.00 80 1011.6
20260509132405 60 236 1.0 3.0 0.00 0.00 0.00 80 1011.6
20260509131904 59 233 1.0 3.0 0.00 0.00 0.00 80 1011.6
20260509131404 59 195 1.0 3.0 0.00 0.00 0.00 81 1011.8
20260509130404 59 234 0.0 2.0 0.00 0.00 0.00 82 1011.8
20260509125904 59 218 1.0 2.0 0.00 0.00 0.00 82 1011.7
20260509125409 58 175 0.0 2.0 0.00 0.00 0.00 83 1012.0
20260509124903 58 175 1.0 2.0 0.00 0.00 0.00 83 1012.0
20260509123904 58 175 0.0 0.0 0.00 0.00 0.00 84 1012.0
20260509123402 58 175 1.0 2.0 0.00 0.00 0.00 84 1011.9
20260509122903 58 175 1.0 2.0 0.00 0.00 0.00 85 1011.5
20260509121903 57 249 0.0 1.0 0.00 0.00 0.00 86 1011.5
20260509121402 57 249 0.0 1.0 0.00 0.00 0.00 87 1011.5
20260509120903 57 249 0.0 0.0 0.00 0.00 0.00 87 1011.5
20260509120402 57 249 0.0 0.0 0.00 0.00 0.00 87 1011.5
20260509115903 57 249 0.0 0.0 0.00 0.00 0.00 87 1011.3
20260509115404 56 249 0.0 0.0 0.00 0.00 0.00 87 1011.3
20260509114902 56 249 0.0 0.0 0.00 0.00 0.00 87 1011.3
20260509114402 56 249 0.0 0.0 0.00 0.00 0.00 87 1011.5
20260509113903 56 249 0.0 0.0 0.00 0.00 0.00 86 1011.5
20260509113404 56 249 0.0 0.0 0.00 0.00 0.00 86 1011.5
20260509112903 56 249 0.0 0.0 0.00 0.00 0.00 86 1011.5
20260509112403 56 249 0.0 0.0 0.00 0.00 0.00 86 1011.2
20260509111903 56 249 0.0 0.0 0.00 0.00 0.00 86 1011.2
20260509111403 56 249 0.0 0.0 0.00 0.00 0.00 86 1011.2
20260509110902 56 249 0.0 0.0 0.00 0.00 0.00 86 1011.2
20260509110404 56 249 0.0 0.0 0.00 0.00 0.00 86 1011.2
20260509105403 55 249 0.0 1.0 0.00 0.00 0.00 86 1011.2
20260509104902 55 249 0.0 1.0 0.00 0.00 0.00 87 1011.2
20260509104404 55 249 0.0 0.0 0.00 0.00 0.00 87 1011.4
20260509103902 55 249 0.0 1.0 0.00 0.00 0.00 87 1011.4
20260509102904 55 249 0.0 0.0 0.00 0.00 0.00 87 1011.2
20260509102403 55 249 0.0 1.0 0.00 0.00 0.00 87 1011.2
20260509101903 55 249 0.0 1.0 0.00 0.00 0.00 87 1011.2
20260509101403 55 249 0.0 2.0 0.00 0.00 0.00 86 1011.2
20260509100903 55 249 0.0 1.0 0.00 0.00 0.00 86 1011.2
20260509100403 55 249 0.0 0.0 0.00 0.00 0.00 86 1011.2
20260509095904 55 249 0.0 0.0 0.00 0.00 0.00 86 1011.2
20260509095403 55 249 0.0 0.0 0.00 0.00 0.00 86 1011.2
20260509094903 55 249 0.0 0.0 0.00 0.00 0.00 86 1011.3
20260509094403 55 249 0.0 0.0 0.00 0.00 0.00 87 1011.3
20260509093903 55 249 0.0 0.0 0.00 0.00 0.00 87 1011.3
20260509093402 55 249 0.0 1.0 0.00 0.00 0.00 87 1011.3
20260509092903 55 249 0.0 1.0 0.00 0.00 0.00 87 1011.4
20260509092404 55 249 0.0 0.0 0.00 0.00 0.00 87 1011.7
20260509091903 55 249 0.0 1.0 0.00 0.00 0.00 87 1011.7
20260509091402 55 249 0.0 0.0 0.00 0.00 0.00 87 1011.7
20260509090903 55 249 0.0 0.0 0.00 0.00 0.00 87 1011.7
20260509090404 55 249 0.0 0.0 0.00 0.00 0.00 87 1011.7
20260509085902 55 249 0.0 1.0 0.00 0.00 0.00 87 1011.6
20260509085402 55 249 0.0 2.0 0.00 0.00 0.00 87 1011.6
20260509084903 54 249 0.0 0.0 0.00 0.00 0.00 87 1011.6
20260509084404 54 249 0.0 0.0 0.00 0.00 0.00 87 1011.7
20260509083403 54 249 0.0 0.0 0.00 0.00 0.00 87 1011.7
20260509082404 54 249 0.0 0.0 0.00 0.00 0.00 87 1011.2
20260509081903 53 249 0.0 0.0 0.00 0.00 0.00 87 1011.2
20260509081402 53 249 0.0 0.0 0.00 0.00 0.00 87 1011.3
20260509080904 53 249 0.0 0.0 0.00 0.00 0.00 87 1011.3
20260509080403 53 249 0.0 0.0 0.00 0.00 0.00 87 1011.3
20260509075902 53 249 0.0 0.0 0.00 0.00 0.00 86 1011.2
20260509075403 53 249 0.0 0.0 0.00 0.00 0.00 87 1011.2
20260509074903 53 249 0.0 0.0 0.00 0.00 0.00 87 1011.2
20260509073903 53 249 0.0 1.0 0.00 0.00 0.00 87 1011.1
20260509073404 52 249 0.0 1.0 0.00 0.00 0.00 87 1011.1
20260509072903 52 249 0.0 0.0 0.00 0.00 0.00 87 1011.4
20260509072402 52 249 0.0 0.0 0.00 0.00 0.00 86 1011.4
20260509071904 52 249 0.0 0.0 0.00 0.00 0.00 86 1011.4
20260509070903 52 249 0.0 0.0 0.00 0.00 0.00 86 1011.4
20260509065903 52 249 0.0 0.0 0.00 0.00 0.00 85 1011.8
20260509064402 52 249 0.0 0.0 0.00 0.00 0.00 86 1011.8
20260509063903 52 249 0.0 1.0 0.00 0.00 0.00 86 1011.8
20260509063403 52 249 0.0 1.0 0.00 0.00 0.00 86 1011.8
20260509062904 51 249 0.0 0.0 0.00 0.00 0.00 85 1011.9
20260509062403 51 249 0.0 0.0 0.00 0.00 0.00 85 1012.4
20260509061903 51 249 0.0 0.0 0.00 0.00 0.00 85 1012.4
20260509061404 51 249 0.0 0.0 0.00 0.00 0.00 85 1012.4
20260509060903 51 249 0.0 0.0 0.00 0.00 0.00 85 1012.4
20260509060403 52 249 0.0 0.0 0.00 0.00 0.00 85 1012.4
20260509055904 51 249 0.0 0.0 0.00 0.00 0.00 85 1012.4
20260509055402 51 249 0.0 0.0 0.00 0.00 0.00 84 1012.4
20260509054903 51 249 0.0 0.0 0.00 0.00 0.00 84 1012.4
20260509054404 51 249 0.0 0.0 0.00 0.00 0.00 84 1012.5
20260509053903 52 249 0.0 0.0 0.00 0.00 0.00 84 1012.5
20260509053402 52 249 0.0 0.0 0.00 0.00 0.00 84 1012.5
20260509052904 52 249 0.0 1.0 0.00 0.00 0.00 83 1012.6
20260509051903 52 249 0.0 0.0 0.00 0.00 0.00 83 1012.6
20260509051404 52 249 0.0 0.0 0.00 0.00 0.00 83 1012.5
20260509050903 52 249 0.0 0.0 0.00 0.00 0.00 83 1012.5
20260509050403 52 249 0.0 0.0 0.00 0.00 0.00 83 1012.5
20260509045904 52 249 0.0 0.0 0.00 0.00 0.00 82 1012.8
20260509045403 52 249 0.0 0.0 0.00 0.00 0.00 82 1012.8
20260509044904 53 249 0.0 0.0 0.00 0.00 0.00 82 1012.8
20260509044403 53 249 0.0 0.0 0.00 0.00 0.00 82 1012.8
20260509043905 53 249 0.0 0.0 0.00 0.00 0.00 81 1012.8
20260509043403 53 249 0.0 0.0 0.00 0.00 0.00 81 1012.8
20260509042903 53 249 0.0 0.0 0.00 0.00 0.00 81 1012.8
20260509042404 53 249 0.0 0.0 0.00 0.00 0.00 80 1012.8
20260509041403 53 249 0.0 1.0 0.00 0.00 0.00 80 1012.7
20260509040904 54 249 0.0 0.0 0.00 0.00 0.00 79 1012.7
20260509040403 54 249 0.0 0.0 0.00 0.00 0.00 79 1012.8
20260509035903 54 249 0.0 0.0 0.00 0.00 0.00 79 1012.8
20260509035404 54 249 0.0 0.0 0.00 0.00 0.00 79 1012.8
20260509034903 54 249 0.0 0.0 0.00 0.00 0.00 78 1012.8
20260509033904 54 249 0.0 0.0 0.00 0.00 0.00 78 1012.9
20260509032404 55 249 0.0 0.0 0.00 0.00 0.00 77 1013.3
20260509031903 55 249 0.0 1.0 0.00 0.00 0.00 77 1013.3
20260509031403 55 249 0.0 0.0 0.00 0.00 0.00 77 1013.3
20260509030903 55 249 0.0 1.0 0.00 0.00 0.00 77 1013.3
20260509025904 56 249 0.0 0.0 0.00 0.00 0.00 75 1013.4
20260509025404 56 249 0.0 0.0 0.00 0.00 0.00 75 1013.4
20260509024904 56 249 0.0 0.0 0.00 0.00 0.00 75 1013.4
20260509024403 56 249 0.0 0.0 0.00 0.00 0.00 75 1013.1
20260509023903 56 249 0.0 0.0 0.00 0.00 0.00 74 1013.1
20260509023404 56 249 0.0 0.0 0.00 0.00 0.00 73 1013.1
20260509022404 57 249 0.0 0.0 0.00 0.00 0.00 72 1013.1
20260509021904 57 249 0.0 0.0 0.00 0.00 0.00 72 1013.1
20260509021403 57 249 0.0 0.0 0.00 0.00 0.00 72 1013.0
20260509020903 57 249 0.0 0.0 0.00 0.00 0.00 71 1013.0
20260509020404 58 249 0.0 0.0 0.00 0.00 0.00 70 1013.0
20260509015903 58 249 0.0 0.0 0.00 0.00 0.00 70 1012.7
20260509014904 58 249 0.0 0.0 0.00 0.00 0.00 69 1012.7
20260509014403 59 249 0.0 0.0 0.00 0.00 0.00 70 1012.7
20260509013903 59 249 0.0 0.0 0.00 0.00 0.00 70 1012.7
20260509013404 59 249 0.0 0.0 0.00 0.00 0.00 69 1012.7
20260509012903 60 249 0.0 0.0 0.00 0.00 0.00 68 1012.9
20260509011904 60 249 0.0 0.0 0.00 0.00 0.00 67 1012.9
20260509011403 61 249 0.0 0.0 0.00 0.00 0.00 67 1012.9
20260509010903 61 249 0.0 0.0 0.00 0.00 0.00 67 1012.9
20260509010403 61 249 0.0 0.0 0.00 0.00 0.00 66 1012.9
20260509005904 62 249 0.0 0.0 0.00 0.00 0.00 64 1012.9
20260509004903 62 249 0.0 0.0 0.00 0.00 0.00 67 1012.8
20260509003903 63 249 0.0 0.0 0.00 0.00 0.00 64 1012.8
20260509003403 63 249 0.0 0.0 0.00 0.00 0.00 64 1012.8
20260509002904 64 249 0.0 0.0 0.00 0.00 0.00 64 1012.9
20260509002403 64 249 0.0 0.0 0.00 0.00 0.00 63 1012.9
20260509001904 64 249 0.0 0.0 0.00 0.00 0.00 64 1012.9
20260509001403 65 249 0.0 1.0 0.00 0.00 0.00 61 1012.9
20260509000904 65 249 0.0 1.0 0.00 0.00 0.00 59 1012.9
20260509000404 65 249 0.0 2.0 0.00 0.00 0.00 60 1012.9
20260508235903 65 249 0.0 0.0 0.00 0.00 0.00 61 1012.8
20260508235403 66 249 0.0 0.0 0.00 0.00 0.00 60 1012.8
20260508234905 66 249 0.0 0.0 0.00 0.00 0.00 59 1012.8
20260508233904 66 249 1.0 2.0 0.00 0.00 0.00 55 1012.7
20260508233404 66 257 0.0 1.0 0.00 0.00 0.00 55 1012.7
20260508232903 67 257 0.0 2.0 0.00 0.00 0.00 57 1012.8
20260508232404 67 263 1.0 3.0 0.00 0.00 0.00 55 1012.8
20260508231904 67 250 0.0 2.0 0.00 0.00 0.00 54 1012.8
20260508231403 67 243 1.0 3.0 0.00 0.00 0.00 53 1012.8
20260508230903 67 236 1.0 3.0 0.00 0.00 0.00 53 1012.8
20260508230405 67 208 0.0 2.0 0.00 0.00 0.00 53 1012.8
20260508225904 67 205 2.0 3.0 0.00 0.00 0.00 52 1012.9
20260508224905 68 248 1.0 3.0 0.00 0.00 0.00 51 1012.9
20260508224403 68 243 1.0 2.0 0.00 0.00 0.00 51 1013.1
20260508223903 68 251 0.0 1.0 0.00 0.00 0.00 50 1013.1
20260508223404 68 251 1.0 3.0 0.00 0.00 0.00 47 1013.1
20260508222404 68 251 1.0 3.0 0.00 0.00 0.00 46 1013.3
20260508221404 69 249 2.0 5.0 0.00 0.00 0.00 44 1012.6
20260508220903 69 260 2.0 3.0 0.00 0.00 0.00 44 1012.6
20260508220404 69 224 2.0 3.0 0.00 0.00 0.00 43 1012.6
20260508215903 69 230 2.0 3.0 0.00 0.00 0.00 41 1012.6
20260508215403 70 241 2.0 5.0 0.00 0.00 0.00 41 1012.6
20260508214904 70 265 1.0 2.0 0.00 0.00 0.00 41 1012.6
20260508214403 70 263 2.0 7.0 0.00 0.00 0.00 40 1012.6
20260508213904 70 260 2.0 6.0 0.00 0.00 0.00 41 1012.6
20260508213405 70 256 3.0 6.0 0.00 0.00 0.00 39 1012.6
20260508212903 70 223 3.0 6.0 0.00 0.00 0.00 38 1012.6
20260508212403 70 264 2.0 5.0 0.00 0.00 0.00 36 1013.0
20260508211404 70 214 1.0 3.0 0.00 0.00 0.00 35 1013.0
20260508210904 71 252 2.0 5.0 0.00 0.00 0.00 34 1013.0
20260508205905 71 202 2.0 6.0 0.00 0.00 0.00 33 1013.1
20260508205403 71 223 2.0 6.0 0.00 0.00 0.00 29 1013.1
20260508204903 71 159 2.0 5.0 0.00 0.00 0.00 31 1013.1
20260508204405 72 168 2.0 7.0 0.00 0.00 0.00 33 1013.1
20260508203904 72 117 3.0 7.0 0.00 0.00 0.00 32 1013.1
20260508203404 71 226 3.0 6.0 0.00 0.00 0.00 32 1013.1
20260508202905 71 207 3.0 5.0 0.00 0.00 0.00 32 1013.1
20260508202403 71 270 3.0 6.0 0.00 0.00 0.00 32 1013.1
20260508201904 71 201 3.0 3.0 0.00 0.00 0.00 31 1013.1
20260508201404 72 214 3.0 5.0 0.00 0.00 0.00 33 1013.1
20260508200904 72 116 4.0 7.0 0.00 0.00 0.00 31 1013.1
20260508200403 72 214 4.0 7.0 0.00 0.00 0.00 31 1013.4
20260508195905 72 175 1.0 5.0 0.00 0.00 0.00 31 1013.4
20260508195404 72 129 2.0 6.0 0.00 0.00 0.00 33 1013.4
20260508194904 72 237 1.0 5.0 0.00 0.00 0.00 29 1013.4
20260508193904 72 187 2.0 5.0 0.00 0.00 0.00 31 1013.8
20260508192904 72 213 2.0 3.0 0.00 0.00 0.00 35 1014.4
20260508192403 72 252 1.0 3.0 0.00 0.00 0.00 33 1014.4
20260508191904 72 205 4.0 6.0 0.00 0.00 0.00 31 1014.4
20260508191404 73 231 2.0 3.0 0.00 0.00 0.00 30 1014.4
20260508190404 72 288 1.0 2.0 0.00 0.00 0.00 35 1014.4
20260508185905 72 218 0.0 3.0 0.00 0.00 0.00 32 1014.4
20260508185404 72 229 1.0 3.0 0.00 0.00 0.00 30 1014.4
20260508184903 72 111 2.0 6.0 0.00 0.00 0.00 28 1014.4
20260508184405 73 113 2.0 6.0 0.00 0.00 0.00 28 1014.5
20260508183904 72 179 2.0 7.0 0.00 0.00 0.00 30 1014.6
20260508183403 72 218 1.0 5.0 0.00 0.00 0.00 31 1014.7
20260508182905 72 167 1.0 6.0 0.00 0.00 0.00 34 1015.1
20260508182404 72 237 3.0 6.0 0.00 0.00 0.00 29 1015.1
20260508181405 71 27 1.0 2.0 0.00 0.00 0.00 36 1015.1
20260508180904 71 255 4.0 7.0 0.00 0.00 0.00 29 1015.1
20260508180403 71 98 1.0 7.0 0.00 0.00 0.00 28 1015.2
20260508175904 71 78 1.0 3.0 0.00 0.00 0.00 35 1015.6
20260508174904 70 97 3.0 6.0 0.00 0.00 0.00 29 1015.6
20260508174404 70 222 2.0 6.0 0.00 0.00 0.00 27 1015.6
20260508173903 71 114 3.0 6.0 0.00 0.00 0.00 31 1015.6
20260508173403 70 135 5.0 7.0 0.00 0.00 0.00 32 1015.6
20260508172905 70 194 3.0 7.0 0.00 0.00 0.00 34 1015.7
20260508172404 70 248 3.0 5.0 0.00 0.00 0.00 34 1015.7
20260508171903 71 166 2.0 6.0 0.00 0.00 0.00 34 1015.9
20260508171405 69 26 0.0 3.0 0.00 0.00 0.00 38 1015.9
20260508170904 69 255 2.0 7.0 0.00 0.00 0.00 35 1015.9